Showing default

YAOGAN-30 M, 43172

Orbit data source: Space-Track

YAOGAN-30 M, 43172 is a payload satellite owned by PLA SSF (CN) in LEO that was launched on Thu, 25 Jan 2018 UTC via a CHANG ZHENG 2C launch vehicle from the Xichang Space Center, China (XSC). Payload-class satellites include a variety of spacecraft equipped with specific instruments for various scientific and technological missions. These include communications satellites like Starlink; space stations such as the ISS; scientific satellites like the Hubble; Earth observation satellites from companies like Planet Labs, Umbra, and HawkEye 360; GPS; miniature CubeSats for education and research; and military/defense satellites.

Loading next visibility...
Identifier
43172, 2018-011D
Orbit
LEO
Country
Flag of CNCN / PRC
Related business
Manufacturer
SECM
Mission
Operational Defense Sigint
Bus & Motor
Unknown
Mass
~500 kg wet, ~500 kg dry
Launch date (UTC)
2018-01-25 (8 years ago)
Launch vehicle
CHANG ZHENG 2C
Launch site
Xichang Space Center, China (XSC)
Object type
Payload
Rocket body
Debris
Shape & HBR
Box + 2 Pan, 0.5 m
Radar Cross Section
0.446 m², Large (>1 m²)

Expand to show TLE details & history
Last TLE update: 9 hours ago

TLE from 9 hours ago
0 YAOGAN-30 M
1 43172U 18011D   26125.83416694  .00003157  00000-0  23498-3 0  9990
2 43172  34.9975  49.0568 0001138  33.4178 326.6601 15.02515961451714
Epoch: 2026-05-05T20:01Z
TLE epoch observation values (Epoch: 2026-05-05T20:01:12.023Z)
Latitude
-0.00007°
Longitude
-114.94673°
Altitude
557.398 km
Speed
7.585 km/s
True Right ascension
03h 16m 13s
True Declination
0° 00' 00"
Sunlit
Object was in daylight at epoch
Visualization orbit readout
Latitude
Unknown
Longitude
Unknown
Altitude
Unknown
Speed
Unknown
Apparent Right ascension
Unknown
Apparent Declination
Unknown
Sunlit
N/A
Visualization observer readout
Local Sidereal Time
13:16:12
Azimuth
Unknown
Elevation
Unknown
Doppler factor
Unknown
Orbital elements
Apogee altitude
563.152 km
Perigee altitude
561.573 km
Semi-major axis
6,940.5 km
Eccentricity
0.00011
Inclination
34.9975°
RAAN
49.0568°
Arg. of periapsis
33.4178°
True anomaly
326.65293°
Mean anomaly
326.6601°
Eccentric anomaly
326.65652°
Mean motion
3.75368 °/min
Orbital period
95.91 mins
BSTAR
0.00023498
Loading maneuver chart data...
Computing Atmospheric mass density...
Loading historical data...
Loading historical data...
Loading historical data...
Loading historical data...
Loading historical data...
Loading historical data...
Loading historical data...
Other satellites on launch #11 in the year 2018 (2018-01-25 UTC)

Documentation

Showing up to 5 results
|